Location: Sternwarte_Laufen
(47.9344°N, 12.9346°E)
Time: 02:48:40
(UTC+02:00)

Amateur Radio Satellites - All Passes

Search period start: 25 April 2017 02:18
Search period end: 26 April 2017 02:18
Location: Sternwarte_Laufen, 47.9344°N, 12.9346°E

Satellite Date Start Highest point End Downlink Frequencies (MHz)
Time Altitude Azimuth
Gurwin Techsat 1B 25 Apr 02:19:11 02:23:42 28° 94° (E) 02:28:12 435.225
UKube-1 25 Apr 02:19:45 02:23:23 26° 265° (W) 02:27:03 .
POLYITAN 1 25 Apr 02:25:14 02:28:07 18° 298° (WNW) 02:30:59 437.675
QB50P2 25 Apr 02:32:04 02:34:30 15° 300° (WNW) 02:36:55 145.880/145.840
MOZHAYETS 4 25 Apr 02:32:23 02:35:49 22° 62° (ENE) 02:39:16
Oscar 19 25 Apr 02:36:10 02:41:21 62° 102° (ESE) 02:46:29 437.125/150
DX 1 25 Apr 02:51:27 02:52:02 10° 273° (W) 02:52:38 434.975-435.025
ITUPSAT 1 25 Apr 02:55:40 03:00:24 69° 72° (ENE) 03:05:09 437.325
NANOSAT C BR1 25 Apr 02:57:47 02:58:37 11° 304° (WNW) 02:59:27 145.865
BUGSAT 1 25 Apr 03:02:45 03:05:56 23° 296° (WNW) 03:09:05 437.445
KKS-1 25 Apr 03:04:54 03:05:25 10° 54° (NE) 03:05:57 437.445
PCSat 25 Apr 03:05:54 03:10:56 40° 114° (ESE) 03:15:59 145.827
CUBESAT XI-V 25 Apr 03:18:36 03:20:46 13° 56° (ENE) 03:22:56 437.345
NO-84 25 Apr 03:26:07 03:29:00 58° 217° (SW) 03:31:47 435.350 FM
STARS 25 Apr 03:42:28 03:43:37 11° 55° (NE) 03:44:47 437.465
BEESAT 25 Apr 03:54:55 03:59:14 34° 263° (W) 04:03:35 436.000
ITAMSAT 1 25 Apr 03:57:09 04:01:49 33° 96° (E) 04:06:26 435.822/435.867
Gurwin Techsat 1B 25 Apr 03:58:46 04:03:51 47° 292° (WNW) 04:08:55 435.225
YUBILEINY 25 Apr 04:07:25 04:14:50 33° 82° (E) 04:22:16 435.215
MOZHAYETS 4 25 Apr 04:08:15 04:12:40 50° 261° (W) 04:17:08
Oscar 19 25 Apr 04:16:16 04:20:15 23° 300° (WNW) 04:24:12 437.125/150
AO-7 25 Apr 04:22:14 04:30:11 47° 100° (E) 04:38:07 .
ITUPSAT 1 25 Apr 04:35:49 04:38:43 16° 270° (W) 04:41:38 437.325
KKS-1 25 Apr 04:36:41 04:41:08 69° 73° (ENE) 04:45:36 437.445
PCSat 25 Apr 04:49:15 04:54:21 40° 314° (NW) 04:59:29 145.827
CUBESAT XI-V 25 Apr 04:52:46 04:57:24 87° 77° (ENE) 05:02:07 437.345
STARS 25 Apr 05:14:46 05:19:11 76° 74° (ENE) 05:23:37 437.465
M-CUBED/EXP-1 PRIME 25 Apr 05:30:40 05:32:31 12° 49° (NE) 05:34:24 437.505
ITAMSAT 1 25 Apr 05:36:33 05:41:19 38° 295° (WNW) 05:46:04 435.822/435.867
YUBILEINY 25 Apr 06:02:30 06:11:06 63° 284° (WNW) 06:19:46 435.215
STRAND 1 25 Apr 06:13:39 06:17:17 20° 59° (ENE) 06:20:56 437.568
DOVE 4 25 Apr 06:13:52 06:17:37 23° 91° (E) 06:21:11 437.250
AO-7 25 Apr 06:15:09 06:23:01 49° 301° (WNW) 06:30:53 .
KKS-1 25 Apr 06:15:41 06:18:10 15° 270° (W) 06:20:40 437.445
CUTE-I 25 Apr 06:28:54 06:32:49 20° 91° (E) 06:36:42 437.470
CUBESAT XI-V 25 Apr 06:33:39 06:35:27 12° 274° (W) 06:37:16 437.345
PCSat 25 Apr 06:36:31 06:39:17 14° 338° (NNW) 06:42:04 145.827
XW-2D 25 Apr 06:40:31 06:43:41 24° 94° (E) 06:46:51 145.860 - 145.880
XW-2B 25 Apr 06:47:17 06:50:37 28° 95° (E) 06:53:55 145.730 - 145.750
STARS 25 Apr 06:54:03 06:56:04 13° 271° (W) 06:58:04 437.465
SO-50 25 Apr 06:55:13 06:58:52 23° 115° (ESE) 07:02:30 436.795
LilacSat-2 25 Apr 06:55:34 06:59:08 36° 97° (E) 07:02:43 437.200
XW-2C 25 Apr 06:58:55 07:02:30 38° 98° (E) 07:06:04 145.795 - 145.815
M-CUBED/EXP-1 PRIME 25 Apr 07:01:31 07:06:06 67° 67° (ENE) 07:10:46 437.505
KAITUO 1B 25 Apr 07:01:59 07:05:25 33° 97° (E) 07:08:51 145.475/437.950
XW-2F 25 Apr 07:25:56 07:29:43 76° 102° (ESE) 07:33:32 145.980 - 146.000
RS-15 25 Apr 07:30:45 07:41:40 43° 108° (ESE) 07:52:49 29.354- 29.394
HO-68 25 Apr 07:40:34 07:46:27 26° 92° (E) 07:52:18 435.675
NUDT-PHONESAT 25 Apr 07:43:58 07:47:41 80° 284° (WNW) 07:51:25 437.300
STRAND 1 25 Apr 07:50:53 07:55:58 68° 257° (WSW) 08:01:05 437.568
DOVE 4 25 Apr 07:51:01 07:55:34 44° 291° (WNW) 07:59:49 437.250
YUBILEINY 25 Apr 08:04:59 08:10:02 16° 310° (NW) 08:15:07 435.215
CUTE-I 25 Apr 08:08:02 08:13:18 63° 290° (WNW) 08:18:32 437.470
AO-7 25 Apr 08:09:33 08:13:52 15° 324° (NW) 08:18:11 .
XW-2D 25 Apr 08:14:34 08:17:53 29° 292° (WNW) 08:21:13 145.860 - 145.880
XW-2B 25 Apr 08:21:33 08:24:45 26° 293° (WNW) 08:27:56 145.730 - 145.750
XW-2A 25 Apr 08:26:44 08:30:01 50° 100° (E) 08:33:17 145.665 - 145.685
CUTE 1.7 + AOD 2 25 Apr 08:29:04 08:33:17 53° 100° (E) 08:37:29 437.475
LilacSat-2 25 Apr 08:30:19 08:33:13 21° 295° (WNW) 08:36:07 437.200
AAUSAT CUBESAT 2 25 Apr 08:32:30 08:35:37 20° 92° (E) 08:38:42 437.432
XW-2C 25 Apr 08:33:40 08:36:28 20° 295° (WNW) 08:39:16 145.795 - 145.815
SO-50 25 Apr 08:34:30 08:39:01 55° 313° (NW) 08:43:31 436.795
KAITUO 1B 25 Apr 08:36:20 08:39:17 22° 294° (WNW) 08:42:13 145.475/437.950
M-CUBED/EXP-1 PRIME 25 Apr 08:37:53 08:40:55 17° 265° (W) 08:44:01 437.505
AO-73 25 Apr 08:38:50 08:39:52 11° 87° (E) 08:40:53 145.935
SEEDS 25 Apr 08:53:03 08:57:18 63° 101° (E) 09:01:31 437.485
Oscar 11 25 Apr 08:55:51 08:58:17 15° 89° (E) 09:00:42 .
XW-2F 25 Apr 09:02:02 09:03:19 11° 300° (WNW) 09:04:35 145.980 - 146.000
UWE-3 25 Apr 09:04:30 09:08:22 36° 97° (E) 09:12:16 435.000/436.395/437.385
TIGRISAT 25 Apr 09:12:58 09:16:12 21° 63° (ENE) 09:19:25 435.000
CUBEBUG 2 25 Apr 09:13:13 09:17:21 72° 101° (E) 09:21:32 437.445
FO-29 25 Apr 09:14:22 09:19:18 26° 62° (ENE) 09:23:51 435.910
Tancredo 1 25 Apr 09:22:25 09:24:48 20° 140° (SE) 09:27:12 437.200
HO-68 25 Apr 09:27:38 09:34:48 71° 291° (WNW) 09:41:56 435.675
ISS 25 Apr 09:28:40 09:31:07 20° 139° (SE) 09:33:34 437.550
UNISAT 6 25 Apr 09:32:45 09:36:41 33° 67° (ENE) 09:40:33 437.425
PRISM 25 Apr 09:36:34 09:40:39 57° 72° (ENE) 09:44:46 437.425
DELFI C3 25 Apr 09:36:39 09:37:34 11° 87° (E) 09:38:31 145.870
RS-15 25 Apr 09:41:19 09:53:30 73° 314° (NW) 10:05:58 29.354- 29.394
CUTE-I 25 Apr 09:50:30 09:52:21 12° 309° (NW) 09:54:12 437.470
XW-2A 25 Apr 10:00:54 10:02:23 12° 298° (WNW) 10:03:51 145.665 - 145.685
ZACube-1 25 Apr 10:04:23 10:08:35 90° 187° (S) 10:12:51 437.345
CUTE 1.7 + AOD 2 25 Apr 10:05:46 10:08:45 19° 298° (WNW) 10:11:45 437.475
PCSat 25 Apr 10:07:06 10:11:00 19° 31° (NNE) 10:14:52 145.827
AAUSAT CUBESAT 2 25 Apr 10:07:17 10:11:17 44° 289° (WNW) 10:15:16 437.432
AO-73 25 Apr 10:12:28 10:16:40 82° 286° (WNW) 10:20:55 145.935
SO-50 25 Apr 10:17:40 10:20:28 16° 335° (NNW) 10:23:14 436.795
QB50P2 25 Apr 10:19:07 10:19:39 10° 56° (NE) 10:20:12 145.880/145.840
SEEDS 25 Apr 10:29:54 10:32:32 16° 299° (WNW) 10:35:08 437.485
Oscar 11 25 Apr 10:30:32 10:34:51 65° 287° (WNW) 10:39:09 .
NANOSAT C BR1 25 Apr 10:41:07 10:43:25 14° 59° (ENE) 10:45:41 145.865
UWE-3 25 Apr 10:41:18 10:44:41 24° 295° (WNW) 10:48:05 435.000/436.395/437.385
OBJECT BX 25 Apr 10:44:56 10:48:26 42° 99° (E) 10:51:56 145.990 - 145.960
TIGRISAT 25 Apr 10:48:22 10:52:38 48° 261° (W) 10:56:48 435.000
CUBEBUG 2 25 Apr 10:51:22 10:53:28 14° 300° (WNW) 10:55:34 437.445
Tancredo 1 25 Apr 10:57:20 11:00:26 79° 336° (NNW) 11:03:34 437.200
FO-29 25 Apr 10:57:52 11:04:08 60° 258° (WSW) 11:09:44 435.910
ISS 25 Apr 11:04:01 11:07:16 85° 333° (NNW) 11:10:32 437.550
EO-79 25 Apr 11:06:10 11:09:41 26° 65° (ENE) 11:13:12 145.935-145.965
DELFI C3 25 Apr 11:08:52 11:12:54 77° 284° (WNW) 11:16:53 145.870
UNISAT 6 25 Apr 11:09:37 11:13:25 28° 265° (W) 11:17:10 437.425
DUCHIFAT 1 25 Apr 11:10:40 11:14:03 24° 65° (ENE) 11:17:27 145.980
PRISM 25 Apr 11:13:48 11:16:17 15° 269° (W) 11:18:48 437.425
HO-68 25 Apr 11:16:45 11:21:21 19° 313° (NW) 11:25:57 435.675
AIST 2D 25 Apr 11:26:35 11:30:02 68° 75° (ENE) 11:33:31 435.315
O/OREOS (USA 219) 25 Apr 11:27:48 11:32:23 75° 114° (ESE) 11:37:00 437.305
ESTCUBE 1 25 Apr 11:36:51 11:39:49 17° 90° (E) 11:42:47 437.505/2401.250
ZACube-1 25 Apr 11:42:49 11:44:14 12° 302° (WNW) 11:45:40 437.345
POLYITAN 1 25 Apr 11:44:03 11:48:12 61° 73° (ENE) 11:52:23 437.675
PCSat 25 Apr 11:49:56 11:55:23 71° 54° (NE) 12:00:48 145.827
QB50P2 25 Apr 11:50:29 11:54:43 77° 73° (ENE) 11:58:56 145.880/145.840
AO-73 25 Apr 11:51:21 11:52:13 11° 303° (WNW) 11:53:06 145.935
LO-87 25 Apr 11:55:14 11:58:39 40° 99° (E) 12:02:00 145.935 - 145.965
RS-15 25 Apr 11:57:13 12:08:31 39° 344° (NNW) 12:19:50 29.354- 29.394
Gurwin Techsat 1B 25 Apr 12:08:09 12:09:47 11° 51° (NE) 12:11:24 435.225
NANOSAT C BR1 25 Apr 12:14:24 12:18:35 71° 257° (WSW) 12:22:49 145.865
Oscar 19 25 Apr 12:19:03 12:22:49 21° 59° (ENE) 12:26:35 437.125/150
OBJECT BX 25 Apr 12:19:25 12:21:49 17° 296° (WNW) 12:24:14 145.990 - 145.960
BUGSAT 1 25 Apr 12:19:36 12:23:29 41° 70° (ENE) 12:27:22 437.445
Tancredo 1 25 Apr 12:33:39 12:36:37 39° 358° (N) 12:39:35 437.200
AO-85 25 Apr 12:37:01 12:38:56 13° 111° (ESE) 12:40:48 145.980
ISS 25 Apr 12:40:52 12:43:59 41° 357° (N) 12:47:06 437.550
EO-79 25 Apr 12:41:27 12:45:20 34° 263° (W) 12:49:12 145.935-145.965
50 SAT 25 Apr 12:43:45 12:44:30 11° 89° (E) 12:45:15 437.505
DUCHIFAT 1 25 Apr 12:45:40 12:49:34 37° 263° (W) 12:53:29 145.980
DX 1 25 Apr 12:57:17 12:59:08 12° 88° (E) 13:00:59 434.975-435.025
O/OREOS (USA 219) 25 Apr 13:09:09 13:12:21 18° 314° (NW) 13:15:34 437.305
ESTCUBE 1 25 Apr 13:12:31 13:17:01 60° 288° (WNW) 13:21:29 437.505/2401.250
SPROUT 25 Apr 13:14:19 13:18:22 42° 98° (E) 13:22:24 437.525
POLYITAN 1 25 Apr 13:22:02 13:24:24 15° 270° (W) 13:26:46 437.675
LO-87 25 Apr 13:29:26 13:31:48 17° 296° (WNW) 13:34:09 145.935 - 145.965
QB50P2 25 Apr 13:29:30 13:31:02 12° 272° (W) 13:32:34 145.880/145.840
VELOX 1 25 Apr 13:33:39 13:38:07 70° 103° (ESE) 13:42:31 145.980
PCSat 25 Apr 13:34:16 13:38:15 21° 253° (WSW) 13:42:12 145.827
AO-7 25 Apr 13:35:07 13:41:22 25° 46° (NE) 13:47:38 .
SO-50 25 Apr 13:42:27 13:45:16 16° 25° (NNE) 13:48:04 436.795
ITAMSAT 1 25 Apr 13:42:40 13:44:56 13° 53° (NE) 13:47:13 435.822/435.867
Gurwin Techsat 1B 25 Apr 13:43:28 13:48:41 61° 71° (ENE) 13:53:56 435.225
BUGSAT 1 25 Apr 13:55:53 13:59:01 21° 267° (W) 14:02:09 437.445
Oscar 19 25 Apr 13:56:31 14:01:39 67° 258° (WSW) 14:06:50 437.125/150
UKube-1 25 Apr 14:02:23 14:06:27 38° 98° (E) 14:10:29 .
Tancredo 1 25 Apr 14:09:45 14:12:51 63° 18° (NNE) 14:15:56 437.200
YUBILEINY 25 Apr 14:12:11 14:18:27 21° 55° (NE) 14:24:41 435.215
RS-15 25 Apr 14:13:39 14:25:06 40° 18° (NNE) 14:36:16 29.354- 29.394
BEESAT 3 25 Apr 14:13:41 14:16:43 21° 114° (ESE) 14:19:46 437.485
50 SAT 25 Apr 14:14:21 14:17:50 60° 286° (WNW) 14:21:16 437.505
AO-85 25 Apr 14:14:35 14:18:48 81° 308° (NW) 14:22:50 145.980
ISS 25 Apr 14:17:33 14:20:47 61° 17° (NNE) 14:24:01 437.550
DX 1 25 Apr 14:31:29 14:35:53 77° 285° (WNW) 14:40:13 434.975-435.025
SPROUT 25 Apr 14:50:46 14:54:03 22° 296° (WNW) 14:57:18 437.525
ITUPSAT 1 25 Apr 14:54:12 14:56:32 13° 88° (E) 14:58:51 437.325
VELOX 1 25 Apr 15:11:21 15:14:03 16° 301° (WNW) 15:16:43 145.980
ITAMSAT 1 25 Apr 15:18:21 15:23:31 72° 72° (ENE) 15:28:42 435.822/435.867
SO-50 25 Apr 15:22:12 15:26:40 58° 47° (NE) 15:31:06 436.795
AO-7 25 Apr 15:24:46 15:33:03 82° 69° (ENE) 15:41:23 .
Gurwin Techsat 1B 25 Apr 15:25:03 15:29:02 21° 269° (W) 15:33:05 435.225
UKube-1 25 Apr 15:38:46 15:42:18 25° 296° (WNW) 15:45:48 .
BEESAT 2 25 Apr 15:44:53 15:48:50 68° 125° (SE) 15:52:52 435.950
Tancredo 1 25 Apr 15:45:52 15:48:37 28° 216° (SW) 15:51:20 437.200
BEESAT 3 25 Apr 15:50:10 15:54:01 48° 313° (NW) 15:57:56 437.485
BEESAT 25 Apr 15:50:48 15:55:23 45° 99° (E) 15:59:56 436.000
ISS 25 Apr 15:54:12 15:57:08 32° 216° (SW) 16:00:05 437.550
AO-85 25 Apr 15:57:11 15:59:48 16° 329° (NNW) 16:02:22 145.980
MOZHAYETS 4 25 Apr 15:59:41 16:03:42 29° 95° (E) 16:07:43
YUBILEINY 25 Apr 16:08:03 16:16:52 80° 80° (E) 16:25:40 435.215
DX 1 25 Apr 16:10:10 16:11:17 11° 305° (NW) 16:12:25 434.975-435.025
RS-15 25 Apr 16:27:26 16:39:52 78° 48° (NE) 16:51:44 29.354- 29.394
ITUPSAT 1 25 Apr 16:30:10 16:34:58 82° 286° (WNW) 16:39:45 437.325
CUBESAT XI-V 25 Apr 16:46:41 16:49:50 17° 90° (E) 16:52:58 437.345
ITAMSAT 1 25 Apr 17:00:07 17:03:31 17° 270° (W) 17:06:56 435.822/435.867
SO-50 25 Apr 17:03:21 17:06:46 21° 246° (WSW) 17:10:10 436.795
STARS 25 Apr 17:03:32 17:04:08 10° 87° (E) 17:04:44 437.465
AO-7 25 Apr 17:20:14 17:26:44 25° 269° (W) 17:33:18 .
DOVE 4 25 Apr 17:21:22 17:26:13 38° 67° (ENE) 17:31:01 437.250
BEESAT 2 25 Apr 17:23:55 17:27:01 21° 325° (NW) 17:30:09 435.950
XW-2D 25 Apr 17:25:25 17:28:14 20° 65° (ENE) 17:31:03 145.860 - 145.880
BEESAT 25 Apr 17:29:02 17:32:56 26° 297° (WNW) 17:36:49 436.000
BEESAT 3 25 Apr 17:30:48 17:32:33 12° 335° (NNW) 17:34:20 437.485
XW-2B 25 Apr 17:32:06 17:35:05 23° 66° (ENE) 17:38:05 145.730 - 145.750
MOZHAYETS 4 25 Apr 17:36:42 17:40:54 35° 293° (WNW) 17:45:06
LilacSat-2 25 Apr 17:40:47 17:44:05 30° 68° (ENE) 17:47:24 437.200
XW-2C 25 Apr 17:43:33 17:46:50 30° 69° (ENE) 17:50:11 145.795 - 145.815
KAITUO 1B 25 Apr 17:45:28 17:48:34 26° 67° (ENE) 17:51:40 145.475/437.950
CUTE-I 25 Apr 17:53:43 17:58:48 47° 67° (ENE) 18:03:54 437.470
KKS-1 25 Apr 18:00:26 18:04:55 84° 105° (ESE) 18:09:20 437.445
YUBILEINY 25 Apr 18:05:58 18:12:42 26° 281° (WNW) 18:19:28 435.215
XW-2F 25 Apr 18:09:52 18:13:30 57° 74° (ENE) 18:17:12 145.980 - 146.000
ITUPSAT 1 25 Apr 18:09:53 18:12:02 13° 305° (NW) 18:14:13 437.325
HO-68 25 Apr 18:13:15 18:19:15 30° 56° (NE) 18:25:17 435.675
CUBESAT XI-V 25 Apr 18:22:57 18:27:38 62° 288° (WNW) 18:32:16 437.345
NUDT-PHONESAT 25 Apr 18:26:14 18:29:54 74° 75° (ENE) 18:33:35 437.300
STARS 25 Apr 18:36:45 18:41:09 89° 136° (SE) 18:45:31 437.465
RS-15 25 Apr 18:40:44 18:51:23 38° 254° (WSW) 19:01:41 29.354- 29.394
CUBEBUG 2 25 Apr 18:41:04 18:42:37 12° 58° (ENE) 18:44:10 437.445
XW-2D 25 Apr 18:58:46 19:02:13 35° 263° (W) 19:05:42 145.860 - 145.880
DOVE 4 25 Apr 18:59:05 19:03:54 35° 265° (W) 19:08:40 437.250
XW-2A 25 Apr 19:01:24 19:04:22 29° 69° (ENE) 19:07:19 145.665 - 145.685
XW-2B 25 Apr 19:05:49 19:09:10 30° 264° (W) 19:12:31 145.730 - 145.750
LilacSat-2 25 Apr 19:15:19 19:18:23 23° 266° (W) 19:21:28 437.200
XW-2C 25 Apr 19:18:05 19:21:05 23° 266° (W) 19:24:06 145.795 - 145.815
KAITUO 1B 25 Apr 19:19:23 19:22:31 26° 265° (W) 19:25:42 145.475/437.950
CUTE 1.7 + AOD 2 25 Apr 19:24:42 19:28:50 57° 72° (ENE) 19:33:00 437.475
AAUSAT CUBESAT 2 25 Apr 19:25:57 19:29:05 21° 64° (ENE) 19:32:15 437.432
ZACube-1 25 Apr 19:29:46 19:31:43 13° 59° (ENE) 19:33:40 437.345
CUTE-I 25 Apr 19:34:29 19:39:02 28° 266° (W) 19:43:37 437.470
AO-73 25 Apr 19:37:18 19:39:29 14° 60° (ENE) 19:41:39 145.935
KKS-1 25 Apr 19:38:38 19:40:50 14° 303° (WNW) 19:43:02 437.445
XW-2F 25 Apr 19:46:26 19:48:02 12° 271° (W) 19:49:38 145.980 - 146.000
SEEDS 25 Apr 19:47:38 19:51:47 66° 74° (ENE) 19:55:59 437.485
Oscar 11 25 Apr 19:53:54 19:56:50 18° 62° (ENE) 19:59:46 .
O/OREOS (USA 219) 25 Apr 19:55:23 19:59:36 35° 55° (NE) 20:03:48 437.305
STRAND 1 25 Apr 19:58:00 20:02:33 31° 95° (E) 20:07:03 437.568
HO-68 25 Apr 19:59:22 20:06:29 68° 256° (WSW) 20:13:40 435.675
UWE-3 25 Apr 20:04:34 20:08:38 44° 71° (ENE) 20:12:38 435.000/436.395/437.385
M-CUBED/EXP-1 PRIME 25 Apr 20:12:04 20:15:44 27° 99° (E) 20:19:09 437.505
CUBEBUG 2 25 Apr 20:14:15 20:18:38 89° 51° (NE) 20:22:54 437.445
STARS 25 Apr 20:14:56 20:16:49 13° 303° (WNW) 20:18:42 437.465
NO-84 25 Apr 20:23:10 20:26:09 24° 136° (SE) 20:28:56 435.350 FM
DELFI C3 25 Apr 20:25:41 20:26:57 11° 58° (ENE) 20:28:13 145.870
XW-2A 25 Apr 20:34:44 20:37:11 19° 267° (W) 20:39:38 145.665 - 145.685
BEESAT 3 25 Apr 20:50:01 20:51:31 12° 23° (NNE) 20:53:00 437.485
AAUSAT CUBESAT 2 25 Apr 21:00:21 21:04:17 42° 262° (W) 21:08:18 437.432
AO-85 25 Apr 21:02:18 21:05:55 33° 43° (NE) 21:09:36 145.980
CUTE 1.7 + AOD 2 25 Apr 21:02:28 21:05:02 16° 271° (W) 21:07:38 437.475
ZACube-1 25 Apr 21:03:15 21:07:27 77° 257° (WSW) 21:11:38 437.345
AO-73 25 Apr 21:11:03 21:15:13 70° 257° (WSW) 21:19:22 145.935
SEEDS 25 Apr 21:25:49 21:27:56 14° 272° (W) 21:30:04 437.485
OBJECT BX 25 Apr 21:26:00 21:29:15 31° 69° (ENE) 21:32:30 145.990 - 145.960
Oscar 11 25 Apr 21:28:21 21:32:34 55° 260° (W) 21:36:49 .
O/OREOS (USA 219) 25 Apr 21:34:54 21:38:58 31° 255° (WSW) 21:42:59 437.305
STRAND 1 25 Apr 21:37:04 21:41:48 39° 294° (WNW) 21:46:30 437.568
UWE-3 25 Apr 21:42:12 21:45:19 20° 268° (W) 21:48:24 435.000/436.395/437.385
M-CUBED/EXP-1 PRIME 25 Apr 21:46:16 21:50:14 35° 299° (WNW) 21:53:54 437.505
HO-68 25 Apr 21:52:22 21:55:34 13° 276° (W) 21:58:46 435.675
CUBEBUG 2 25 Apr 21:55:32 21:55:50 10° 273° (W) 21:56:09 437.445
DELFI C3 25 Apr 21:57:06 22:01:05 86° 259° (WSW) 22:05:08 145.870
NO-84 25 Apr 22:00:06 22:03:32 57° 332° (NNW) 22:06:40 435.350 FM
FO-29 25 Apr 22:04:59 22:06:58 12° 87° (E) 22:08:58 435.910
BEESAT 2 25 Apr 22:22:10 22:25:23 22° 36° (NE) 22:28:35 435.950
BEESAT 3 25 Apr 22:26:16 22:30:08 42° 45° (NE) 22:33:58 437.485
LO-87 25 Apr 22:34:35 22:37:45 29° 69° (ENE) 22:40:56 145.935 - 145.965
TIGRISAT 25 Apr 22:36:19 22:39:54 25° 94° (E) 22:43:28 435.000
ESTCUBE 1 25 Apr 22:39:25 22:43:02 24° 63° (ENE) 22:46:41 437.505/2401.250
AO-85 25 Apr 22:42:43 22:46:16 32° 241° (WSW) 22:49:55 145.980
PRISM 25 Apr 22:49:29 22:53:36 57° 101° (E) 22:57:40 437.425
UNISAT 6 25 Apr 22:56:47 23:00:53 43° 99° (E) 23:05:00 437.425
OBJECT BX 25 Apr 23:00:12 23:03:00 21° 267° (W) 23:05:49 145.990 - 145.960
VELOX 1 25 Apr 23:00:21 23:02:29 13° 57° (ENE) 23:04:38 145.980
NO-84 25 Apr 23:38:50 23:41:30 23° 352° (N) 23:44:01 435.350 FM
FO-29 25 Apr 23:47:40 23:52:53 88° 107° (ESE) 23:58:19 435.910
DX 1 25 Apr 23:55:32 23:58:34 19° 61° (ENE) 00:01:35 434.975-435.025
NANOSAT C BR1 25 Apr 23:56:27 23:58:43 14° 89° (E) 00:01:00 145.865
BEESAT 2 25 Apr 23:59:29 00:03:31 65° 236° (WSW) 00:07:31 435.950
BEESAT 3 26 Apr 00:04:13 00:07:32 25° 244° (WSW) 00:10:50 437.485
LO-87 26 Apr 00:08:16 00:11:12 23° 266° (W) 00:14:10 145.935 - 145.965
SPROUT 26 Apr 00:10:37 00:14:45 50° 71° (ENE) 00:18:54 437.525
TIGRISAT 26 Apr 00:12:47 00:16:40 35° 292° (WNW) 00:20:34 435.000
ESTCUBE 1 26 Apr 00:15:19 00:19:37 43° 262° (W) 00:23:57 437.505/2401.250
AIST 2D 26 Apr 00:21:17 00:24:45 50° 100° (E) 00:28:11 435.315
EO-79 26 Apr 00:22:21 00:26:00 28° 95° (E) 00:29:38 145.935-145.965
PRISM 26 Apr 00:25:45 00:28:29 17° 299° (WNW) 00:31:11 437.425
DUCHIFAT 1 26 Apr 00:26:02 00:29:33 25° 94° (E) 00:33:02 145.980
VELOX 1 26 Apr 00:33:49 00:38:17 87° 248° (WSW) 00:42:48 145.980
UNISAT 6 26 Apr 00:34:05 00:37:22 22° 296° (WNW) 00:40:38 437.425
50 SAT 26 Apr 00:49:57 00:53:26 86° 78° (ENE) 00:56:58 437.505
UKube-1 26 Apr 00:59:46 01:03:58 51° 70° (ENE) 01:08:11 .
POLYITAN 1 26 Apr 01:00:51 01:05:04 71° 102° (ESE) 01:09:15 437.675
QB50P2 26 Apr 01:07:24 01:11:38 89° 102° (ESE) 01:15:51 145.880/145.840
NO-84 26 Apr 01:17:03 01:19:42 26° 14° (NNE) 01:22:14 435.350 FM
BEESAT 26 Apr 01:26:12 01:28:04 12° 54° (NE) 01:29:58 436.000
DX 1 26 Apr 01:30:02 01:34:21 57° 259° (WSW) 01:38:42 434.975-435.025
NANOSAT C BR1 26 Apr 01:30:43 01:34:52 62° 287° (WNW) 01:38:59 145.865
BUGSAT 1 26 Apr 01:32:50 01:36:41 41° 99° (E) 01:40:29 437.445
FO-29 26 Apr 01:34:25 01:37:21 15° 305° (NW) 01:40:20 435.910
SPROUT 26 Apr 01:47:59 01:50:56 18° 269° (W) 01:53:55 437.525
AIST 2D 26 Apr 01:55:45 01:57:34 14° 297° (WNW) 01:59:24 435.315
Gurwin Techsat 1B 26 Apr 01:57:03 02:00:39 18° 89° (E) 02:04:13 435.225
EO-79 26 Apr 01:58:03 02:01:46 31° 293° (WNW) 02:05:27 145.935-145.965
DUCHIFAT 1 26 Apr 02:01:30 02:05:16 34° 292° (WNW) 02:09:02 145.980
ITUPSAT 1 26 Apr 02:03:37 02:07:26 24° 62° (ENE) 02:11:14 437.325
Oscar 19 26 Apr 02:04:39 02:09:22 33° 96° (E) 02:14:02 437.125/150
VELOX 1 26 Apr 02:14:39 02:15:25 10° 274° (W) 02:16:12 145.980
